STARLINK-2467

Last updated on Sat May 08 2021 00:02:04 GMT+0000 (Coordinated Universal Time)

1 48126U 21027AL 21127.58334491 .00057664 00000-0 41284-3 0 9993 2 48126 53.0475 191.7780 0002367 24.0276 263.8059 15.73172849 1774

Satellite not in orbit

STARLINK-2467